This is the latest recevied weather packets stored in our database for station/object WD4HMR. If no packets are shown the sender has not sent any weather packets the latest 10 day(s).
| Time | Temp. | Humidity | Pressure | Rain* | Wind** | Luminosity | Snow |
|---|---|---|---|---|---|---|---|
| 1777577104 | 19.44° C | 64% | 1014.9 hPa | 0 mm | - | 1241 W/m² | - |
| 1777575904 | 18.89° C | 67% | 1015 hPa | 0 mm | - | 1259 W/m² | - |
| 1777574404 | 18.89° C | 68% | 1015 hPa | 0 mm | - | 1265 W/m² | - |
| 1777573204 | 18.33° C | 69% | 1015.2 hPa | 0 mm | - | 1256 W/m² | - |
| 1777571104 | 18.33° C | 72% | 1015.1 hPa | 0 mm | - | 1213 W/m² | - |
| 1777567804 | 17.78° C | 76% | 1015.3 hPa | 0 mm | - | 1079 W/m² | - |
| 1777566304 | 17.78° C | 74% | 1015.4 hPa | 0 mm | - | 996 W/m² | - |
| 1777566004 | 17.78° C | 75% | 1015.4 hPa | 0 mm | - | 978 W/m² | - |
| 1777564803 | 17.78° C | 77% | 1015.4 hPa | 0 mm | - | 902 W/m² | - |
| 1777564205 | 17.22° C | 75% | 1015.3 hPa | 0 mm | - | 862 W/m² | - |
| 1777563903 | 17.22° C | 78% | 1015.3 hPa | 0 mm | - | 842 W/m² | - |
| 1777563304 | 17.22° C | 77% | 1015.3 hPa | 0 mm | - | 801 W/m² | - |
| 1777561804 | 16.67° C | 80% | 1015 hPa | 0 mm | - | 694 W/m² | - |
| 1777561211 | 16.67° C | 84% | 1014.8 hPa | 0 mm | - | 651 W/m² | - |
| 1777560604 | 16.11° C | 85% | 1014.8 hPa | 0 mm | - | 608 W/m² | - |
| 1777560304 | 16.11° C | 84% | 1014.8 hPa | 0 mm | - | 586 W/m² | - |
| 1777558804 | 15° C | 90% | 1014.5 hPa | 0 mm | - | 479 W/m² | - |
| 1777558204 | 14.44° C | 91% | 1014.1 hPa | 0 mm | - | 437 W/m² | - |
| 1777557603 | 14.44° C | 92% | 1013.9 hPa | 0 mm | - | 395 W/m² | - |
| 1777557304 | 14.44° C | 92% | 1013.6 hPa | 0 mm | - | 375 W/m² | - |
| 1777556704 | 13.89° C | 96% | 1012.8 hPa | 0 mm | - | 335 W/m² | - |
| 1777555804 | 13.89° C | 98% | 1012.3 hPa | 0 mm | - | 277 W/m² | - |
| 1777555504 | 13.89° C | 98% | 1012.3 hPa | 0 mm | - | 258 W/m² | - |
| 1777553104 | 13.89° C | 99% | 1011.5 hPa | 0 mm | - | 72 W/m² | - |
| 1777551004 | 13.89° C | 100% | 1010.9 hPa | 0 mm | - | 10 W/m² | - |
* Rain latest hour (hover to see other rain measurements)
** Current wind speed in m/s (hover to see current wind gust speed)